Location: Oberwangen
(47.4286°N, 8.9679°E)
Time: 06:43:45
(UTC+00:00)

Cosmos 1300 - Pass Details

Date: 20 June 2021
Orbit: 509 x 513 km, 82.5° (Epoch: 28 July)

Event Time Altitude Azimuth Distance (km) Brightness Sun altitude
Rises 20:57:32 0° 351° (N) 2,638 7.6 -11.7°
Reaches altitude 10° 20:59:41 10° 353° (N) 1,746 6.4 -11.9°
Maximum altitude 21:03:31 78° 81° (E) 529 2.6 -12.2°
Enters shadow 21:06:11 19° 166° (SSE) 1,271 4.1 -12.5°
